This is the latest recevied weather packets stored in our database for station/object APPOWX. If no packets are shown the sender has not sent any weather packets the latest 10 day(s).
| Time | Temp. | Humidity | Pressure | Rain* | Wind** | Luminosity | Snow |
|---|---|---|---|---|---|---|---|
| 1777313652 | 17.22° C | 45% | 1025.8 hPa | 0 mm | - | - | - |
| 1777313593 | 17.22° C | 46% | 1025.8 hPa | 0 mm | - | - | - |
| 1777313532 | 17.78° C | 46% | 1025.8 hPa | 0 mm | - | - | - |
| 1777313473 | 17.78° C | 50% | 1025.9 hPa | 0 mm | - | - | - |
| 1777313412 | 18.33° C | 48% | 1025.8 hPa | 0 mm | - | - | - |
| 1777313352 | 18.33° C | 46% | 1026 hPa | 0 mm | - | - | - |
| 1777313292 | 18.33° C | 43% | 1025.9 hPa | 0 mm | - | - | - |
| 1777313232 | 18.33° C | 45% | 1026.2 hPa | 0 mm | - | - | - |
| 1777313172 | 18.33° C | 49% | 1025.9 hPa | 0 mm | - | - | - |
| 1777313112 | 18.33° C | 47% | 1026 hPa | 0 mm | - | - | - |
| 1777313052 | 18.33° C | 49% | 1025.9 hPa | 0 mm | - | - | - |
| 1777312991 | 18.33° C | 49% | 1025.9 hPa | 0 mm | - | - | - |
| 1777312931 | 18.33° C | 47% | 1025.8 hPa | 0 mm | - | - | - |
| 1777312871 | 17.78° C | 48% | 1025.7 hPa | 0 mm | - | - | - |
| 1777312810 | 17.78° C | 45% | 1026 hPa | 0 mm | - | - | - |
| 1777312751 | 17.78° C | 48% | 1025.9 hPa | 0 mm | - | - | - |
| 1777312691 | 18.33° C | 46% | 1026 hPa | 0 mm | - | - | - |
| 1777312630 | 18.33° C | 48% | 1025.9 hPa | 0 mm | - | - | - |
| 1777312571 | 18.33° C | 47% | 1026 hPa | 0 mm | - | - | - |
| 1777312510 | 17.78° C | 55% | 1026 hPa | 0 mm | - | - | - |
| 1777312450 | 17.22° C | 51% | 1026 hPa | 0 mm | - | - | - |
| 1777312389 | 16.67° C | 51% | 1026.2 hPa | 0 mm | - | - | - |
| 1777312330 | 16.67° C | 54% | 1025.9 hPa | 0 mm | - | - | - |
| 1777312269 | 16.11° C | 50% | 1026 hPa | 0 mm | - | - | - |
| 1777312209 | 16.67° C | 51% | 1026.1 hPa | 0 mm | - | - | - |
* Rain latest hour (hover to see other rain measurements)
** Current wind speed in m/s (hover to see current wind gust speed)